Volver al catálogo

STARLINK-38263

ActivoComunicacionesSSO
NORAD 100264·PAYLOAD·🇺🇸 United States

Lanzado Aug 8, 2026 desde Vandenberg Space Force Base

Loading…

Próximos Pases (próximas 24 horas)

TLE

ActualizadoSource: Space-Track

Época: Sep 14, 2026, 15:49 UTC

1 A0264U 26181U   26257.65909575  .00185256  00000-0  12166-2 0  9993
2 A0264  97.2835 301.0091 0001476 101.2146 258.9285 15.75181949  7034

Sigue STARLINK-38263 en tiempo real con AllMySat

Download on the App Store